Powrót do katalogu

OPS 5346

AktywnyNawigacjaGEO
NORAD 4418·PAYLOAD·🇺🇸 United States

Wystrzelony Jun 19, 1970 z Cape Canaveral Space Force Station

Loading…

TLE

ŚwieżeSource: Mike McCants

Epoka: Sep 15, 2026, 00:17 UTC

1 04418U 70046A   26258.01208341  .00000000  00000-0  00000-0 0    09
2 04418   2.5363  82.6768 0006812  55.6914 304.3847  1.00260635 19330

Śledź OPS 5346 w czasie rzeczywistym z AllMySat

Download on the App Store